Location: Bois de la Silve
(44.4667°N, 6.7833°E)
Time: 10:29:01
(UTC+00:00)

Cosmos 1741 Rocket - Pass Details

Date: 14 July 2020
Orbit: 761 x 783 km, 74.0° (Epoch: 06 August)

Event Time Altitude Azimuth Distance (km) Brightness Sun altitude
Exits shadow 03:04:19 11° 217° (SW) 2,234 5.8 -9.0°
Maximum altitude 03:09:16 56° 295° (WNW) 910 4.3 -8.3°
Drops below altitude 10° 03:14:24 10° 13° (NNE) 2,309 7.4 -7.6°
Sets 03:16:51 0° 18° (NNE) 3,242 8.4 -7.3°
